FENGYUN 1C DEB

Satellite information

Favourite Embed

Satellite Type and Status

DEBRISIN ORBIT

Key statistics

Satellite FENGYUN 1C DEB at a glance.

Uptime

9715

Days in orbit

Revolutions

≈ 14.1

Per day

Orbit

SSO

Sun Synchronous Orbit

Inclination

98.6

Latest

Satellite identification and parameters

Extended collection of information and parameters for FENGYUN 1C DEB.

Object identification

Identified? True

Debris? True

Object name: FENGYUN 1C DEB

International designator: 1999-025DK

Object number (NORAD): 29817

Object ID (CCSDS): 29817

Country: PEOPLES REPUBLIC OF CHINA (PRC)

Current information (Y/N): Y

RCS size: MEDIUM

Orbital parameters

Period: 101.82 minutes

Inclination: 98.5576 deg

SMA: 7222.988 km

Apoapsis: 853.692 km

Periapsis: 836.014 km

RAAN: 336.6839 deg

Eccentricy: 0.00122368

Argument of periapsis: 13.5063 deg

Mean anomaly: 105.639 deg

Mean motion: 14.14254062 rev/day

Mean motion (dot): 0.00000901 rev/day2

B* drag term: 0.00049353269 1/REarth

Two-line elements (TLE)

Creation date: Dec. 14, 2025, 3:07 a.m.

Reference frame: TEME

Reference center: EARTH

Epoch: Dec. 13, 2025, 12:24 p.m. UTC

TLE line 0: 0 FENGYUN 1C DEB

TLE line 1: 1 29817U 99025DK 25347.51685205 .00000901 00000-0 49353-3 0 9992

TLE line 2: 2 29817 98.5576 336.6839 0012237 13.5063 105.6390 14.14254062974069

Live tracking on map

Real-time ground track for satellite FENGYUN 1C DEB.

In-orbit conjunctions

A list of the most updated potential collisions computed for object FENGYUN 1C DEB.

Target Orbit TCA Probability of collision Miss distance Type
THORAD AGENA D DEB SSO 2025-02-13 19:55:32 0.0001693316 98.0 (m) DEBRIS
PEGASUS DEB LEO 2024-11-04 12:59:10 0.0002413906 42.0 (m) DEBRIS

Associated space launch

Chinese polar orbiting meteorological satellite

FENGYUN 1C DEB was lifted into orbit during the mission ‘Long March 4B | Feng Yun 1C’, on board a Long March 4B space rocket.

The launch took place on May 10, 1999, 1:33 a.m. from Launch Complex 7.

For more information about the launch, click the button.

Launch to space Long March 4B | Feng Yun 1C
Long March 4B | Feng Yun 1C

Agency: N/A

Status: Launch Successful

Launch date: May 10, 1999, 1:33 a.m. UTC

Rocket: Long March 4B

Launch pad: Launch Complex 7

Location: Taiyuan Satellite Launch Center, People's Republic of China

...

Latest news about this satellite

There are no fresh news available about this satellite. Check back as we update our databases every day.


Newsletter sign-up

Weekly statistics, charts and insights to help you stay on top of the space industry.